Flag for U.S.A. Weather past 2 weeks in Fremont, California, U.S.A.

Now
58 °F

Clear.


Feels Like: 56 °F
Forecast: 51 / 66 °F
Wind: 8 mph from Northwest

Location: Moffett Field


UV Index: 0 (Low)

Visibility: 10 mi


Pressure: 30.12 "Hg

Humidity: 65%

Dew point: 46 °F

Location of FremontLocation

Historic Weather in Fremont

°F

Fremont temperature yesterday

Maximum temperature yesterday: 64 °F (at 11:56 AM)
Minimum temperature yesterday: 52 °F (at 4:56 AM)
Average temperature yesterday: 57 °F

Past Weeks' High & Low Weather Summary

 TemperatureHumidityPressure
High80 °F (Apr 20, 3:56 PM)87% (Apr 9, 3:56 AM)30.17 "Hg (Apr 9, 3:56 AM)
Low50 °F (Apr 19, 6:56 AM)20% (Apr 20, 3:56 PM)29.82 "Hg (Apr 17, 5:56 AM)
Average60 °F66%30.01 "Hg
* Reported Apr 8 7:56 PM — Apr 23 7:56 PM, Fremont, Weather by CustomWeather, © 2014

Note: Actual official high and low records may vary slightly from our data, if they occured in-between our weather recording intervals... More about our weather records

Advertising

Historic Weather Conditions — Data for Previous 24 hours

 ConditionsComfort  
Time TempWeatherWind HumidityBarometerVisibility
7:56 PM
Apr 23
60 °FSunny.16 mph56%30.12 "Hg10 mi
6:56 PM62 °FSunny.12 mph48%30.11 "Hg10 mi
5:56 PM65 °FSunny.15 mph40%30.10 "Hg10 mi
4:56 PM67 °FSunny.18 mph42%30.10 "Hg10 mi
3:56 PM67 °FSunny.13 mph41%30.11 "Hg10 mi
2:56 PM67 °FSunny.12 mph41%30.13 "Hg10 mi
1:56 PM65 °FSunny.15 mph44%30.14 "Hg10 mi
12:56 PM65 °FSunny.14 mph40%30.14 "Hg10 mi
11:56 AM62 °FSunny.16 mph39%30.16 "Hg10 mi
10:56 AM60 °FSunny.9 mph44%30.16 "Hg10 mi
9:56 AM58 °FSunny.10 mph56%30.17 "Hg10 mi
8:56 AM56 °FSunny.3 mph55%30.16 "Hg10 mi
7:56 AM54 °FSunny.5 mph57%30.16 "Hg10 mi
6:56 AM51 °FClear.3 mph61%30.15 "Hg10 mi
5:56 AM51 °FClear.3 mph61%30.14 "Hg10 mi
4:56 AM51 °FClear.3 mph61%30.13 "Hg10 mi
3:56 AM51 °FClear.No wind59%30.13 "Hg10 mi
2:56 AM52 °FClear.No wind57%30.13 "Hg10 mi
1:56 AM52 °FClear.6 mph61%30.14 "Hg10 mi
12:56 AM52 °FClear.7 mph64%30.14 "Hg10 mi
11:56 PM
Apr 22
52 °FClear.7 mph64%30.16 "Hg10 mi
10:56 PM53 °FClear.3 mph56%30.15 "Hg10 mi
9:56 PM54 °FClear.10 mph55%30.14 "Hg10 mi
Weather by CustomWeather, © 2014

See weather overview